TimeCST,TemperatureF,Dew PointF,Humidity,Sea Level PressureIn,VisibilityMPH,Wind Direction,Wind SpeedMPH,Gust SpeedMPH,PrecipitationIn,Events,Conditions,WindDirDegrees,DateUTC
12:53 AM,57.9,41.0,53,30.22,10.0,North,9.2,-,N/A,,Partly Cloudy,360,2012-11-24 06:53:00
1:53 AM,55.9,41.0,57,30.23,10.0,NNW,3.5,-,N/A,,Overcast,340,2012-11-24 07:53:00
2:53 AM,51.1,42.1,71,30.23,10.0,North,4.6,-,N/A,,Scattered Clouds,10,2012-11-24 08:53:00
3:53 AM,50.0,41.0,71,30.24,10.0,NNW,3.5,-,N/A,,Clear,340,2012-11-24 09:53:00
4:53 AM,48.0,39.9,74,30.27,10.0,North,8.1,-,N/A,,Clear,350,2012-11-24 10:53:00
5:53 AM,45.0,37.9,76,30.28,10.0,North,4.6,-,N/A,,Clear,360,2012-11-24 11:53:00
6:53 AM,43.0,37.0,80,30.30,10.0,North,4.6,-,N/A,,Clear,360,2012-11-24 12:53:00
7:53 AM,45.0,37.9,76,30.32,10.0,North,6.9,-,N/A,,Clear,360,2012-11-24 13:53:00
8:53 AM,50.0,36.0,59,30.31,10.0,NNE,11.5,-,N/A,,Clear,30,2012-11-24 14:53:00
9:53 AM,53.1,35.1,50,30.31,10.0,NNE,6.9,-,N/A,,Clear,20,2012-11-24 15:53:00
10:53 AM,55.0,35.1,47,30.29,10.0,NE,5.8,-,N/A,,Clear,40,2012-11-24 16:53:00
11:53 AM,57.9,36.0,44,30.26,10.0,NNE,10.4,-,N/A,,Clear,20,2012-11-24 17:53:00
12:53 PM,60.1,35.1,39,30.24,10.0,North,8.1,17.3,N/A,,Clear,360,2012-11-24 18:53:00
1:53 PM,60.1,34.0,38,30.21,10.0,NNE,9.2,-,N/A,,Clear,20,2012-11-24 19:53:00
2:53 PM,60.1,33.1,36,30.19,10.0,North,8.1,-,N/A,,Clear,360,2012-11-24 20:53:00
3:53 PM,59.0,34.0,39,30.19,10.0,North,5.8,-,N/A,,Clear,360,2012-11-24 21:53:00
4:53 PM,54.0,37.9,55,30.19,10.0,NNW,3.5,-,N/A,,Clear,340,2012-11-24 22:53:00
5:53 PM,46.0,39.0,76,30.20,10.0,Calm,Calm,-,N/A,,Clear,0,2012-11-24 23:53:00
6:53 PM,43.0,39.0,86,30.21,10.0,Calm,Calm,-,N/A,,Clear,0,2012-11-25 00:53:00
7:53 PM,41.0,37.9,89,30.22,10.0,Calm,Calm,-,N/A,,Clear,0,2012-11-25 01:53:00
8:53 PM,39.0,37.0,93,30.21,10.0,Calm,Calm,-,N/A,,Clear,0,2012-11-25 02:53:00
9:53 PM,36.0,35.1,97,30.21,10.0,Calm,Calm,-,N/A,,Clear,0,2012-11-25 03:53:00
10:53 PM,35.1,33.1,92,30.20,10.0,Calm,Calm,-,N/A,,Clear,0,2012-11-25 04:53:00
11:53 PM,34.0,32.0,92,30.19,10.0,Calm,Calm,-,0.01,,Clear,0,2012-11-25 05:53:00